Baton Rouge, LA

2:10 PM CDT on September 30, 2016 (GMT -0500)
Baton Rouge Metro-Ryan

Weather History for KBTR - June, 2013

Change the Weather History Date:

Saturday, June 29, 2013

  Actual Average Record
Temperature  
Mean Temperature 80 °F 82 °F  
Max Temperature 88 °F 92 °F 100 °F (1914)
Min Temperature 72 °F 73 °F 63 °F (1958)
Degree Days  
Heating Degree Days 0 0  
Month to date heating degree days 0 0  
Since 1 June heating degree days 0 0  
Since 1 July heating degree days 1551 1555  
Cooling Degree Days 15 18  
Month to date cooling degree days 486 466  
Year to date cooling degree days 909 1031  
Since 1 June cooling degree days 486 466  
Growing Degree Days 30 (Base 50)    
Moisture  
Dew Point 75 °F    
Average Humidity 81    
Maximum Humidity 94    
Minimum Humidity 68    
Precipitation  
Precipitation 0.25 in 0.22 in 1.57 in (1934)
Month to date precipitation 6.47 6.18  
Year to date precipitation 44.65 30.70  
Snow  
Snow 0.00 in - - ()
Month to date snowfall 0.0  
Since 1 June snowfall 0.0  
Since 1 July snowfall 0.0  
Snow Depth 0.00 in    
Sea Level Pressure  
Sea Level Pressure 29.78 in    
Wind  
Wind Speed 7 mph (WSW)    
Max Wind Speed 26 mph    
Max Gust Speed 31 mph    
Visibility 9 miles    
Events Rain , Thunderstorm    
T = Trace of Precipitation, MM = Missing Value Source: NWS Daily Summary

Daily Weather History Graph

Daily Weather History Graph

Search for Another Location

Airport or City:

Trip Planner

Search our weather history database for the weather conditions in past years. The results will help you decide how hot, cold, wet, or windy it might be!

Date:

Astronomy

Jun. 29, 2013 Rise Set
Actual Time 6:05 AM CDT 8:11 PM CDT
Civil Twilight 5:37 AM CDT 8:38 PM CDT
Nautical Twilight 5:03 AM CDT 9:12 PM CDT
Astronomical Twilight 4:27 AM CDT 9:48 PM CDT
Moon 12:08 AM CDT (6/29) 12:46 PM CDT (6/29)
Length of Visible Light 15h 01m
Length of Day
14h 05m
Waning Gibbous, 55% of the Moon is Illuminated
Jun 29
Waning Gibbous
Jun 29
Last Quarter
Jul 8
New
Jul 15
First Quarter
Jul 22
Full

Hourly Weather History & Observations

Time (CDT) Temp. Heat Index Dew Point Humidity Pressure Visibility Wind Dir Wind Speed Gust Speed Precip Events Conditions
12:53 AM 81.0 °F 86.7 °F 75.0 °F 82% 29.81 in 10.0 mi SW 10.4 mph - N/A   Clear
1:53 AM 81.0 °F 87.3 °F 75.9 °F 85% 29.79 in 10.0 mi SW 9.2 mph - N/A   Mostly Cloudy
2:53 AM 79.0 °F - 75.9 °F 90% 29.78 in 10.0 mi West 6.9 mph - N/A   Partly Cloudy
3:53 AM 80.1 °F 85.8 °F 77.0 °F 90% 29.79 in 10.0 mi WNW 5.8 mph - N/A   Mostly Cloudy
4:28 AM 80.6 °F 87.1 °F 77.0 °F 89% 29.80 in 10.0 mi West 5.8 mph - 0.00 in Rain , Thunderstorm Thunderstorms and Rain
4:53 AM 79.0 °F - 73.9 °F 84% 29.80 in 10.0 mi WNW 13.8 mph 23.0 mph 0.00 in Rain , Thunderstorm Thunderstorms and Rain
5:15 AM 73.4 °F - 71.6 °F 94% 29.81 in 1.8 mi WNW 15.0 mph 23.0 mph 0.12 in Rain , Thunderstorm Thunderstorms and Rain
5:19 AM 73.4 °F - 71.6 °F 94% 29.82 in 3.0 mi West 16.1 mph 23.0 mph 0.21 in Rain , Thunderstorm Thunderstorms and Rain
5:53 AM 73.0 °F - 71.1 °F 93% 29.79 in 3.0 mi WSW 15.0 mph - 0.24 in Rain , Thunderstorm Thunderstorms and Rain
6:53 AM 73.0 °F - 71.1 °F 93% 29.80 in 10.0 mi WSW 5.8 mph - N/A Thunderstorm Thunderstorm
7:49 AM 75.2 °F - 71.6 °F 89% 29.81 in 10.0 mi SSW 5.8 mph - N/A   Partly Cloudy
7:53 AM 75.0 °F - 72.0 °F 90% 29.81 in 10.0 mi SSW 5.8 mph - N/A   Partly Cloudy
8:53 AM 75.9 °F - 73.0 °F 91% 29.83 in 10.0 mi SSW 5.8 mph - N/A   Partly Cloudy
9:53 AM 78.1 °F - 73.0 °F 84% 29.81 in 10.0 mi South 5.8 mph - N/A   Scattered Clouds
10:53 AM 80.1 °F 84.5 °F 73.9 °F 81% 29.81 in 10.0 mi South 11.5 mph - N/A   Scattered Clouds
11:22 AM 82.4 °F 89.5 °F 75.2 °F 79% 29.82 in 10.0 mi South 9.2 mph - N/A   Mostly Cloudy
11:53 AM 81.0 °F 86.2 °F 73.9 °F 79% 29.81 in 10.0 mi SW 11.5 mph - N/A   Overcast
12:53 PM 82.9 °F 90.2 °F 75.0 °F 77% 29.80 in 10.0 mi SW 12.7 mph - N/A   Mostly Cloudy
1:53 PM 84.9 °F 94.1 °F 75.9 °F 74% 29.78 in 10.0 mi SW 9.2 mph - N/A   Mostly Cloudy
2:00 PM 84.2 °F 92.3 °F 75.2 °F 74% 29.78 in 10.0 mi SW 9.2 mph - N/A   Mostly Cloudy
2:53 PM 87.1 °F 97.3 °F 75.9 °F 69% 29.75 in 10.0 mi SW 10.4 mph - N/A   Mostly Cloudy
3:53 PM 86.0 °F 96.0 °F 75.9 °F 72% 29.73 in 10.0 mi SW 9.2 mph - N/A   Mostly Cloudy
4:53 PM 86.0 °F 96.9 °F 77.0 °F 74% 29.72 in 10.0 mi WSW 9.2 mph - N/A   Mostly Cloudy
5:38 PM 84.2 °F 94.1 °F 77.0 °F 79% 29.72 in 10.0 mi WSW 3.5 mph - N/A   Scattered Clouds
5:53 PM 84.9 °F 96.6 °F 78.1 °F 80% 29.71 in 10.0 mi SW 4.6 mph - N/A   Scattered Clouds
6:53 PM 84.9 °F 95.3 °F 77.0 °F 77% 29.70 in 10.0 mi West 8.1 mph - N/A   Scattered Clouds
7:53 PM 84.0 °F 96.0 °F 79.0 °F 85% 29.72 in 10.0 mi Calm Calm - N/A   Mostly Cloudy
8:53 PM 82.0 °F 91.6 °F 79.0 °F 90% 29.74 in 10.0 mi Calm Calm - N/A   Mostly Cloudy
9:53 PM 81.0 °F 89.2 °F 79.0 °F 94% 29.76 in 10.0 mi NE 3.5 mph - N/A   Partly Cloudy
10:53 PM 78.1 °F - 75.9 °F 93% 29.76 in 10.0 mi Calm Calm - N/A   Clear
11:53 PM 77.0 °F - 75.0 °F 94% 29.77 in 10.0 mi Calm Calm - N/A   Clear